Location: �perlecques
(50.8057°N, 2.1521°E)
Time: 11:09:57
(UTC+00:00)

Cosmos 1892 - Pass Details

Date: 09 April 2020
Orbit: 503 x 525 km, 82.5° (Epoch: 25 May)

Event Time Altitude Azimuth Distance (km) Brightness Sun altitude
Rises 19:55:05 0° 357° (N) 2,675 6.8 -12.2°
Reaches altitude 10° 19:57:26 10° 8° (N) 1,781 5.7 -12.5°
Maximum altitude 20:00:56 30° 71° (ENE) 958 3.7 -13.0°
Enters shadow 20:02:35 22° 114° (ESE) 1,190 3.9 -13.2°
